Weather History for Canadian, TX

Change the Weather History Date:

Wednesday, December 19, 2012

  Actual Average (KPPA) Record (KPPA)
Temperature  
Mean Temperature 52 °F -  
Max Temperature 71 °F 51 °F 72 °F (1978)
Min Temperature 32 °F 24 °F 3 °F (1983)
Degree Days  
Heating Degree Days 14    
Growing Degree Days 2 (Base 50)    
Moisture  
Dew Point 27 °F    
Average Humidity 52    
Maximum Humidity 87    
Minimum Humidity 15    
Precipitation  
Precipitation 0.00 in - - ()
Sea Level Pressure  
Sea Level Pressure 29.65 in    
Wind  
Wind Speed 10 mph (WNW)    
Max Wind Speed 34 mph    
Max Gust Speed 50 mph    
Visibility 10 miles    
Events Snow    
Averages and records for this station are not official NWS values.
T = Trace of Precipitation, MM = Missing Value Source: NWS Daily Summary

Daily Weather History Graph

Daily Weather History Graph

Search for Another Location

Airport:

Trip Planner

Search our weather history database for the weather conditions in past years. The results will help you decide how hot, cold, wet, or windy it might be!

Date:

Astronomy

Dec. 19, 2012 Rise Set
Actual Time 7:47 AM CST 5:30 PM CST
Civil Twilight 7:18 AM CST 5:59 PM CST
Nautical Twilight 6:46 AM CST 6:31 PM CST
Astronomical Twilight 6:15 AM CST 7:02 PM CST
Moon 12:09 PM CST (12/19) No Moon Set
Length of Visible Light 10h 40m
Length of Day
9h 43m
Waxing Crescent, 45% of the Moon is Illuminated
Dec 19
Waxing Crescent
Dec 19
First Quarter
Dec 28
Full
Jan 4
Last Quarter
Jan 11
New

Hourly Weather History & Observations

Time (CST) Temp. Windchill Dew Point Humidity Pressure Visibility Wind Dir Wind Speed Gust Speed Precip Events Conditions
12:15 AM 46.4 °F 45.2 °F 21.2 °F 37% 29.73 in 10.0 mi East 3.5 mph - N/A   Clear
12:35 AM 46.4 °F 42.9 °F 24.8 °F 43% 29.72 in 10.0 mi SE 6.9 mph - N/A   Clear
12:55 AM 44.6 °F 43.1 °F 24.8 °F 46% 29.72 in 10.0 mi SE 3.5 mph - N/A   Clear
1:15 AM 46.4 °F 42.9 °F 26.6 °F 46% 29.71 in 10.0 mi SE 6.9 mph - N/A   Clear
1:35 AM 48.2 °F - 26.6 °F 43% 29.69 in 10.0 mi SSE 6.9 mph - N/A   Clear
1:55 AM 46.4 °F 45.2 °F 28.4 °F 50% 29.68 in 10.0 mi SSE 3.5 mph - N/A   Clear
2:15 AM 46.4 °F 45.2 °F 28.4 °F 50% 29.68 in 10.0 mi SSE 3.5 mph - N/A   Clear
2:35 AM 46.4 °F 45.2 °F 28.4 °F 50% 29.67 in 10.0 mi East 3.5 mph - N/A   Clear
2:55 AM 44.6 °F 43.1 °F 28.4 °F 53% 29.67 in 10.0 mi ESE 3.5 mph - N/A   Clear
3:15 AM 46.4 °F 45.2 °F 28.4 °F 50% 29.66 in 10.0 mi SE 3.5 mph - N/A   Clear
3:35 AM 44.6 °F 41.4 °F 28.4 °F 53% 29.64 in 10.0 mi SSE 5.8 mph - N/A   Clear
3:55 AM 46.4 °F - 28.4 °F 50% 29.63 in 10.0 mi Calm Calm - N/A   Clear
4:15 AM 46.4 °F 45.2 °F 28.4 °F 50% 29.63 in 10.0 mi SE 3.5 mph - N/A   Scattered Clouds
4:35 AM 46.4 °F 45.2 °F 28.4 °F 50% 29.63 in 10.0 mi South 3.5 mph - N/A   Scattered Clouds
4:55 AM 44.6 °F - 28.4 °F 53% 29.61 in 10.0 mi Calm Calm - N/A   Clear
5:15 AM 44.6 °F 41.4 °F 28.4 °F 53% 29.60 in 10.0 mi East 5.8 mph - N/A   Clear
5:35 AM 44.6 °F 41.4 °F 30.2 °F 57% 29.60 in 10.0 mi ESE 5.8 mph - N/A   Clear
5:55 AM 42.8 °F - 30.2 °F 61% 29.60 in 10.0 mi Calm Calm - N/A   Clear
6:15 AM 42.8 °F 39.3 °F 30.2 °F 61% 29.59 in 10.0 mi East 5.8 mph - N/A   Scattered Clouds
6:35 AM 42.8 °F 41.1 °F 30.2 °F 61% 29.59 in 10.0 mi ESE 3.5 mph - N/A   Scattered Clouds
6:55 AM 42.8 °F - 30.2 °F 61% 29.59 in 10.0 mi Calm Calm - N/A   Clear
7:15 AM 44.6 °F - 30.2 °F 57% 29.58 in 10.0 mi Calm Calm - N/A   Clear
7:35 AM 44.6 °F 42.2 °F 30.2 °F 57% 29.58 in 10.0 mi South 4.6 mph - N/A   Clear
7:55 AM 44.6 °F - 30.2 °F 57% 29.58 in 10.0 mi Calm Calm - N/A   Clear
8:15 AM 44.6 °F 42.2 °F 30.2 °F 57% 29.57 in 10.0 mi SSE 4.6 mph - N/A   Clear
8:35 AM 42.8 °F 41.1 °F 30.2 °F 61% 29.57 in 10.0 mi SSE 3.5 mph - N/A   Clear
8:55 AM 44.6 °F - 30.2 °F 57% 29.56 in 10.0 mi Calm Calm - N/A   Clear
9:15 AM 44.6 °F - 30.2 °F 57% 29.56 in 10.0 mi Calm Calm - N/A   Clear
9:35 AM 44.6 °F 41.4 °F 30.2 °F 57% 29.55 in 10.0 mi South 5.8 mph - N/A   Clear
9:55 AM 46.4 °F 44.3 °F 30.2 °F 53% 29.56 in 10.0 mi South 4.6 mph - N/A   Scattered Clouds
10:15 AM 44.6 °F 43.1 °F 32.0 °F 61% 29.56 in 10.0 mi NNW 3.5 mph - N/A   Clear
10:35 AM 42.8 °F 41.1 °F 32.0 °F 66% 29.55 in 10.0 mi NNE 3.5 mph - N/A   Clear
10:55 AM 44.6 °F 41.4 °F 32.0 °F 61% 29.55 in 10.0 mi East 5.8 mph - N/A   Clear
11:15 AM 46.4 °F 43.5 °F 32.0 °F 57% 29.55 in 10.0 mi North 5.8 mph - N/A   Clear
11:35 AM 46.4 °F 42.4 °F 32.0 °F 57% 29.51 in 10.0 mi ESE 8.1 mph - N/A   Clear
11:55 AM 50.0 °F - 30.2 °F 47% 29.50 in 10.0 mi NE 3.5 mph - N/A   Clear
12:15 PM 50.0 °F - 32.0 °F 50% 29.49 in 10.0 mi SSE 3.5 mph - N/A   Clear
12:35 PM 57.2 °F - 28.4 °F 33% 29.47 in 10.0 mi SSW 13.8 mph 17.3 mph N/A   Clear
12:55 PM 60.8 °F - 26.6 °F 27% 29.45 in 10.0 mi SSW 15.0 mph - N/A   Clear
1:15 PM 64.4 °F - 24.8 °F 22% 29.42 in 10.0 mi SW 16.1 mph - N/A   Clear
1:35 PM 69.8 °F - 23.0 °F 17% 29.40 in 10.0 mi SW 18.4 mph - N/A   Clear
1:55 PM 71.6 °F - 21.2 °F 15% 29.40 in 10.0 mi WSW 26.5 mph 41.4 mph N/A   Clear
2:15 PM 71.6 °F - 21.2 °F 15% 29.40 in 10.0 mi WSW 29.9 mph 39.1 mph N/A   Scattered Clouds
2:35 PM 69.8 °F - 23.0 °F 17% 29.41 in 10.0 mi West 31.1 mph 43.7 mph N/A   Clear
2:55 PM 69.8 °F - 23.0 °F 17% 29.41 in 10.0 mi West 29.9 mph 39.1 mph N/A   Clear
3:15 PM 55.4 °F - 23.0 °F 29% 29.44 in 10.0 mi NNW 23.0 mph 31.1 mph N/A   Mostly Cloudy
3:35 PM 51.8 °F - 23.0 °F 33% 29.48 in 10.0 mi NNW 24.2 mph 33.4 mph N/A   Mostly Cloudy
3:55 PM 50.0 °F - 19.4 °F 30% 29.52 in 10.0 mi NW 24.2 mph 33.4 mph N/A   Mostly Cloudy
4:15 PM 50.0 °F - 19.4 °F 30% 29.54 in 10.0 mi NW 18.4 mph 27.6 mph N/A   Mostly Cloudy
4:35 PM 48.2 °F - 19.4 °F 32% 29.58 in 10.0 mi NW 23.0 mph 33.4 mph N/A   Overcast
4:55 PM 46.4 °F 39.5 °F 19.4 °F 34% 29.58 in 10.0 mi NW 17.3 mph 26.5 mph N/A   Overcast
5:15 PM 46.4 °F 38.1 °F 19.4 °F 34% 29.61 in 10.0 mi NW 24.2 mph 32.2 mph N/A   Overcast
5:35 PM 44.6 °F 35.9 °F 21.2 °F 39% 29.63 in 10.0 mi NW 23.0 mph 31.1 mph N/A   Overcast
5:55 PM 41.0 °F 29.5 °F 23.0 °F 49% 29.66 in 10.0 mi WNW 32.2 mph 42.6 mph N/A   Mostly Cloudy
6:15 PM 37.4 °F 25.0 °F 26.6 °F 65% 29.70 in 10.0 mi WNW 29.9 mph 43.7 mph N/A   Scattered Clouds
6:35 PM 35.6 °F 23.4 °F 26.6 °F 70% 29.73 in 10.0 mi NW 25.3 mph 36.8 mph N/A   Clear
6:55 PM 35.6 °F 21.9 °F 26.6 °F 70% 29.75 in 10.0 mi NW 33.4 mph 39.1 mph N/A   Scattered Clouds
7:15 PM 35.6 °F 22.3 °F 26.6 °F 70% 29.75 in 10.0 mi NW 31.1 mph 44.9 mph N/A   Overcast
7:35 PM 33.8 °F 20.3 °F 26.6 °F 75% 29.77 in 10.0 mi NW 28.8 mph 49.5 mph N/A   Overcast
7:55 PM 32.0 °F 18.6 °F 28.4 °F 87% 29.80 in 7.0 mi NW 25.3 mph 39.1 mph N/A Snow Light Snow
8:15 PM 32.0 °F 17.2 °F 28.4 °F 87% 29.83 in 10.0 mi NW 32.2 mph 43.7 mph N/A   Overcast
8:55 PM 32.0 °F 16.7 °F 26.6 °F 80% 29.88 in 7.0 mi NW 34.5 mph 43.7 mph N/A Snow Light Snow
9:15 PM 32.0 °F 18.1 °F 26.6 °F 80% 29.90 in 7.0 mi NNW 27.6 mph 41.4 mph N/A   Overcast
9:35 PM 32.0 °F 18.1 °F 26.6 °F 80% 29.93 in 10.0 mi NNW 27.6 mph 40.3 mph N/A   Overcast
9:55 PM 32.0 °F 17.9 °F 23.0 °F 69% 29.94 in 10.0 mi NNW 28.8 mph 39.1 mph N/A   Overcast
10:15 PM 32.0 °F 18.4 °F 23.0 °F 69% 29.95 in 10.0 mi NNW 26.5 mph 40.3 mph N/A   Overcast
10:35 PM 32.0 °F 17.0 °F 23.0 °F 69% 29.97 in 10.0 mi NNW 33.4 mph 40.3 mph N/A   Mostly Cloudy
10:55 PM 32.0 °F 17.2 °F 23.0 °F 69% 29.99 in 10.0 mi NNW 32.2 mph 39.1 mph N/A   Overcast
11:15 PM 32.0 °F 17.2 °F 23.0 °F 69% 30.01 in 10.0 mi NW 32.2 mph 38.0 mph N/A   Mostly Cloudy
11:35 PM 32.0 °F 19.2 °F 23.0 °F 69% 30.02 in 10.0 mi NW 23.0 mph 39.1 mph N/A   Mostly Cloudy
11:55 PM 32.0 °F 18.9 °F 24.8 °F 75% 30.04 in 10.0 mi NW 24.2 mph 39.1 mph N/A   Overcast